Wind_Speed
25 24 23 21 19 17 16 15 15 17 18 19 20 19 19 18 16 15 15 12 12 11 11 10 8 8 6 7 7 7 8 9 12 14 13 10 7 6 7 6 5 5 5 6 7 5 3 5 4
25 24 23 21 20 18 16 15 15 16 16 18 18 18 17 17 17 13 15 12 10 11 11 10 9 7 6 5 5 6 6 8 11 13 11 8 4 4 5 6 4 4 5 7 5 1 3 4 3
27 26 24 22 19 19 17 16 15 16 17 17 16 16 16 13 13 12 14 14 11 12 12 11 10 9 7 6 6 6 6 7 10 12 9 6 3 0 3 7 6 6 8 7 3 3 4 5 4
28 26 24 23 20 18 18 17 17 17 16 16 15 16 15 13 11 10 11 11 11 11 13 13 12 11 10 9 7 7 8 9 10 11 10 7 5 4 7 11 11 9 9 8 5 6 7 7 7
32 29 24 23 22 21 20 19 19 18 18 17 15 15 14 14 13 11 11 10 10 12 12 13 13 12 10 9 8 7 7 7 9 10 10 9 8 8 10 12 12 10 10 10 8 8 10 10 11
35 31 26 23 23 22 23 22 21 19 18 18 16 17 16 15 13 11 10 11 10 10 11 11 12 13 13 11 9 8 7 7 9 10 11 11 12 14 15 15 11 9 10 11 12 12 13 14 15
38 32 29 26 25 27 27 25 23 21 20 19 18 18 17 16 14 13 10 9 10 9 9 9 9 10 10 11 11 11 10 11 12 14 15 16 18 18 16 13 11 11 12 14 15 15 17 17 18
38 35 33 29 28 28 28 26 25 23 22 21 19 19 19 17 16 15 13 11 10 9 8 8 7 6 6 6 8 9 9 10 11 12 13 14 15 14 13 13 13 15 17 18 19 19 19 19 20
43 37 34 33 33 29 29 28 27 25 23 22 21 20 20 18 17 16 14 12 11 10 8 8 7 7 8 9 9 10 10 11 12 12 13 14 14 15 15 16 17 20 20 20 19 19 20 21 23
45 39 38 38 35 33 29 28 28 26 25 23 21 19 18 18 16 14 15 14 12 11 10 10 10 11 11 11 11 12 11 11 12 13 13 14 15 16 19 20 21 20 19 19 19 20 21 23 24
48 44 42 39 37 36 30 31 29 26 25 23 22 21 18 17 16 16 15 15 14 13 12 11 10 9 8 9 9 8 8 8 9 10 11 11 13 13 14 15 17 19 20 21 21 22 24 26 27
42 47 44 42 38 36 35 33 31 28 26 25 24 22 19 17 16 15 14 13 11 11 11 10 8 7 7 6 6 7 7 8 9 10 11 12 13 14 15 16 18 19 22 23 25 26 27 29 29
44 51 47 45 41 42 34 33 31 30 28 26 25 24 20 18 17 15 15 14 12 11 11 8 7 7 8 6 6 7 7 8 9 10 12 14 15 17 18 19 20 20 23 24 26 27 30 32 32
40 54 52 48 44 42 41 36 33 32 30 28 27 24 23 20 18 17 16 15 14 12 10 8 9 9 9 8 9 10 10 11 12 13 13 15 17 19 21 23 24 25 26 28 30 31 33 36 36
41 51 54 53 49 46 44 40 34 34 32 30 28 26 24 23 21 19 17 16 14 13 12 11 11 12 12 12 13 14 14 16 16 17 18 20 22 23 25 26 28 30 31 32 33 33 34 35 36
42 52 57 56 53 48 47 41 38 35 33 32 30 29 27 27 24 22 20 18 17 16 14 15 15 16 16 16 18 19 20 20 21 23 24 26 27 28 31 32 34 36 37 38 38 37 36 38 40
37 41 58 58 53 50 49 42 43 38 34 34 32 31 31 29 27 26 24 20 19 18 18 18 19 19 20 21 22 23 24 25 26 28 30 32 33 34 36 38 38 40 41 42 42 42 42 43 45
37 43 47 57 54 52 50 43 43 40 37 36 36 34 33 32 31 30 27 24 23 22 22 23 23 24 25 26 27 28 29 30 30 31 33 35 37 39 41 42 42 43 44 45 45 46 48 47 48
38 37 39 48 56 54 51 46 44 42 40 37 36 35 34 34 32 32 30 28 26 26 25 29 29 29 29 29 30 32 34 34 35 35 37 38 40 42 44 45 46 46 47 48 48 50 51 55 58
41 37 39 46 58 56 53 49 46 44 42 39 37 38 36 36 35 34 31 29 29 30 31 32 32 33 34 34 34 35 38 39 39 41 42 43 43 44 45 46 48 48 48 49 50 53 58 61 63
40 42 41 37 58 58 54 53 52 47 45 43 41 41 40 37 36 35 34 33 33 33 34 35 36 37 38 39 39 39 40 40 42 44 45 46 46 46 47 49 48 48 50 55 58 58 60 62 65
28 43 34 38 41 63 63 59 55 52 49 46 45 44 41 40 39 37 37 36 36 35 35 37 40 41 42 43 42 41 43 45 44 43 44 45 47 48 48 49 52 55 56 57 59 60 62 65 68
39 38 34 30 34 48 61 64 62 58 57 52 49 45 43 41 40 40 41 40 41 41 44 43 47 44 44 43 42 44 46 44 44 46 47 47 48 49 51 53 54 55 57 61 64 67 68 70 71
45 39 32 27 28 29 43 54 58 64 60 56 51 48 46 44 44 46 47 49 46 44 47 47 46 45 44 45 46 45 46 48 51 52 52 50 52 54 53 53 56 59 62 64 66 68 69 69 68
40 36 35 32 36 37 32 40 51 58 64 57 55 53 52 51 51 53 53 57 56 48 51 49 45 43 47 45 44 48 50 51 49 55 58 54 56 55 56 58 60 61 63 65 66 65 64 65 65
45 47 43 42 37 37 34 36 40 44 51 59 61 61 64 63 64 60 60 59 59 61 53 50 50 49 49 50 48 50 48 54 57 63 60 63 58 57 57 59 61 63 63 62 63 61 62 63 64
38 40 43 41 43 36 36 36 35 32 39 42 42 40 44 50 55 62 60 51 54 51 57 55 53 51 50 53 54 55 56 57 57 61 59 53 53 57 59 60 61 61 60 60 60 62 63 64 65
44 40 41 42 37 35 40 39 39 37 41 42 43 41 36 38 44 50 49 50 53 54 52 58 65 58 50 55 59 57 58 56 54 50 47 49 54 55 57 58 58 58 59 61 62 62 64 66 67
41 44 45 45 40 35 36 38 40 37 36 42 43 37 38 38 36 39 44 47 53 52 52 57 55 62 56 59 63 60 47 43 43 44 48 53 55 55 56 55 56 58 60 62 63 65 66 67 68
37 41 44 42 39 34 35 33 32 35 36 37 39 35 36 36 36 38 39 45 49 58 65 66 61 53 48 42 40 40 39 42 45 49 52 53 52 52 54 56 58 60 61 63 64 65 66 57 45
Wind_Direction
202 196 194 191 188 182 179 181 176 170 167 168 166 167 166 167 164 163 162 159 152 150 140 135 136 140 141 142 139 132 128 134 148 147 142 129 107 82 59 30 2 354 343 327 310 302 148 160 177
211 200 195 190 189 183 186 183 181 174 173 178 173 169 168 172 171 171 170 170 165 168 158 149 148 155 159 166 159 150 146 147 155 158 154 140 117 70 29 354 333 312 307 308 296 214 191 190 194
211 205 198 191 186 189 189 183 184 185 181 180 175 167 171 171 170 168 174 176 174 179 173 175 169 169 176 186 182 172 167 166 167 172 172 174 180 3 331 319 313 296 305 307 285 250 225 216 225
206 209 199 194 185 191 187 185 183 189 187 184 176 164 163 161 156 155 162 174 180 179 185 183 182 182 186 189 197 192 180 180 183 188 193 208 234 273 309 311 314 304 303 289 268 240 234 236 236
202 207 202 198 187 188 184 183 181 185 191 188 176 159 158 148 143 142 147 149 167 179 188 192 197 201 201 198 196 191 192 194 194 200 211 228 248 270 282 287 291 287 288 282 275 247 245 244 244
205 200 199 200 193 184 186 186 182 184 189 184 176 159 153 144 144 148 148 142 142 154 173 193 204 208 207 207 208 207 202 204 208 214 229 244 260 270 276 279 273 278 283 273 277 268 259 254 254
207 197 195 198 196 187 189 187 185 188 186 184 180 161 155 156 158 163 159 154 148 143 143 161 176 196 208 213 221 226 233 235 238 244 251 259 265 269 269 266 270 283 284 277 269 265 262 261 262
208 198 196 196 199 195 190 189 188 194 188 185 184 168 162 167 170 174 173 174 168 167 164 160 166 174 193 207 221 232 238 246 251 258 263 265 268 265 263 267 281 292 295 291 286 286 283 281 280
206 202 197 197 202 196 191 192 192 194 195 190 189 179 172 179 180 182 180 184 182 186 189 192 198 212 223 226 234 241 245 247 252 257 261 264 264 264 267 275 287 296 298 295 290 290 290 290 289
202 201 199 201 199 195 194 200 197 197 201 198 195 192 184 189 193 194 191 192 198 202 202 219 223 227 233 241 243 247 255 264 270 275 280 286 287 286 284 285 287 290 291 291 292 292 292 290 293
208 200 201 203 198 197 203 199 198 203 205 205 198 198 196 196 196 201 202 199 203 208 213 221 227 230 235 245 253 262 269 276 286 291 295 299 301 301 300 299 300 304 305 304 301 299 298 299 302
217 203 200 205 202 195 196 196 197 203 210 210 205 201 198 198 200 201 199 194 195 203 209 210 218 229 238 245 261 265 274 282 286 287 288 288 292 294 295 295 298 300 300 298 299 300 299 299 299
217 204 200 206 205 202 196 199 201 207 210 217 213 202 201 200 200 197 195 196 202 211 218 220 232 241 249 257 269 275 282 283 282 285 290 294 297 297 297 297 295 295 296 299 299 299 299 299 300
215 206 200 208 206 206 205 202 204 209 210 219 219 209 205 203 204 205 206 205 207 218 223 227 239 249 257 260 270 276 279 281 284 288 291 293 294 295 295 295 295 295 295 296 296 298 300 301 302
211 204 211 209 209 207 207 206 206 210 209 214 218 216 209 209 207 207 214 215 218 220 227 236 240 251 257 261 267 274 276 278 282 283 284 284 284 285 286 288 290 292 293 292 291 293 294 295 299
212 211 208 211 211 209 207 203 204 207 208 213 216 218 215 216 213 211 215 223 226 230 235 243 248 253 258 260 264 268 270 272 276 279 279 280 282 284 286 288 289 291 293 294 294 294 295 295 296
215 214 212 210 212 212 212 205 206 210 211 216 217 221 221 220 217 219 217 222 232 235 239 244 249 252 260 266 267 270 273 275 276 279 281 283 284 287 288 289 290 292 294 294 295 296 294 294 297
218 215 212 211 213 215 217 208 210 209 214 217 221 223 226 225 224 226 224 226 234 238 245 248 251 254 260 267 271 273 275 277 279 281 283 285 287 289 290 289 290 291 292 293 294 295 295 296 298
216 213 218 218 214 218 217 212 217 211 213 218 222 228 227 230 229 231 227 228 232 238 242 255 255 260 264 267 271 274 276 278 280 281 282 284 287 290 292 292 292 293 294 294 295 296 296 297 298
213 211 215 213 211 219 220 217 217 218 215 216 220 221 226 232 233 234 235 236 236 241 244 248 253 259 264 268 271 276 280 281 281 283 285 288 290 292 293 293 294 293 293 293 293 293 295 297 299
222 220 219 222 214 217 220 221 220 221 221 220 223 225 228 233 240 242 242 242 243 244 249 252 256 262 266 268 272 276 282 281 281 284 287 290 290 291 292 292 292 292 294 296 296 297 298 299 299
212 215 221 229 224 219 220 222 222 222 225 224 227 231 234 237 240 245 247 249 250 252 255 260 263 264 267 270 273 277 278 279 283 286 290 291 291 291 292 291 292 295 296 297 298 298 299 298 300
212 207 211 218 227 221 221 228 222 223 224 226 227 231 236 239 243 247 249 248 253 254 257 269 263 268 268 268 272 274 278 284 283 286 287 290 290 291 292 294 295 296 298 299 299 300 302 303 304
228 229 225 233 224 235 227 230 230 227 226 228 231 235 237 241 245 250 251 254 254 259 265 272 265 264 265 268 271 274 276 281 285 285 288 290 290 291 292 293 294 297 299 300 301 302 303 303 303
215 222 223 233 227 228 226 231 238 228 227 230 233 237 241 243 245 251 254 261 263 263 263 262 261 266 268 269 272 277 274 281 282 286 289 286 287 289 292 294 297 298 299 302 301 302 303 304 304
227 223 228 231 226 236 236 239 242 232 228 235 240 242 243 246 250 254 255 260 265 269 259 259 259 257 261 266 269 278 276 279 280 280 288 284 284 290 293 296 298 300 301 300 302 305 305 305 305
216 217 222 235 241 242 240 242 247 230 224 225 231 238 244 245 246 247 253 255 265 262 256 251 259 261 261 265 271 269 274 279 282 283 281 284 290 293 295 296 299 300 302 305 305 305 305 305 305
233 224 222 225 235 246 238 242 244 238 233 237 239 244 253 244 244 246 250 257 260 256 259 269 262 258 263 265 269 273 275 275 276 281 289 293 293 294 297 299 302 304 305 305 304 304 304 304 301
222 222 221 224 233 244 245 245 244 246 239 238 241 248 250 248 245 245 248 250 248 248 255 255 255 259 255 265 269 269 273 281 288 296 297 296 297 300 302 303 304 303 303 303 304 303 301 299 299
222 221 220 218 225 237 241 243 246 250 250 246 245 249 248 249 246 249 250 256 255 258 262 264 263 264 263 266 273 281 292 298 298 297 294 296 299 301 302 301 301 303 304 302 300 299 300 301 302
Height
5834 5836 5839 5843 5849 5850 5852 5854 5856 5857 5859 5861 5862 5864 5866 5868 5870 5874 5874 5876 5878 5880 5882 5884 5885 5886 5887 5888 5888 5888 5889 5889 5889 5890 5891 5892 5892 5893 5893 5893 5893 5893 5892 5891 5890 5889 5889 5889 5890
5833 5835 5838 5841 5846 5848 5851 5854 5856 5857 5858 5860 5861 5863 5865 5868 5868 5871 5873 5875 5878 5880 5882 5884 5885 5886 5887 5888 5888 5888 5889 5889 5889 5890 5891 5891 5892 5893 5893 5893 5892 5891 5891 5890 5890 5890 5890 5890 5890
5830 5833 5837 5840 5844 5847 5850 5853 5855 5856 5857 5860 5861 5863 5865 5867 5868 5870 5872 5874 5876 5879 5880 5883 5884 5886 5887 5888 5888 5889 5889 5889 5889 5890 5890 5891 5891 5892 5892 5892 5892 5891 5891 5890 5890 5889 5889 5889 5888
5827 5832 5836 5839 5842 5846 5848 5851 5853 5856 5856 5859 5861 5862 5864 5866 5868 5869 5871 5873 5875 5877 5880 5881 5883 5885 5886 5887 5888 5888 5889 5889 5889 5890 5890 5891 5891 5892 5892 5892 5891 5890 5890 5889 5889 5889 5888 5888 5887
5822 5828 5833 5838 5840 5844 5847 5849 5852 5854 5856 5858 5861 5862 5864 5865 5867 5869 5870 5871 5873 5875 5878 5880 5882 5884 5885 5886 5887 5887 5888 5889 5890 5891 5891 5891 5890 5890 5890 5890 5889 5888 5888 5888 5888 5887 5887 5887 5886
5819 5824 5831 5836 5840 5842 5844 5847 5850 5853 5856 5857 5860 5862 5863 5865 5866 5869 5870 5871 5873 5875 5876 5878 5881 5883 5884 5885 5886 5887 5888 5889 5889 5889 5889 5889 5888 5888 5887 5887 5886 5886 5886 5886 5885 5885 5885 5884 5883
5815 5820 5828 5832 5838 5838 5841 5844 5848 5851 5854 5856 5860 5861 5863 5864 5866 5868 5870 5872 5873 5874 5876 5877 5879 5881 5883 5884 5886 5886 5887 5887 5887 5887 5886 5886 5886 5885 5885 5885 5885 5884 5884 5883 5882 5882 5880 5879 5879
5811 5818 5824 5828 5834 5837 5839 5843 5846 5849 5853 5855 5858 5860 5862 5863 5864 5867 5869 5871 5873 5874 5876 5877 5879 5880 5882 5883 5884 5884 5884 5884 5884 5884 5884 5884 5884 5884 5884 5884 5884 5883 5883 5882 5881 5881 5880 5879 5878
5806 5814 5819 5824 5828 5835 5838 5841 5844 5847 5851 5854 5856 5859 5860 5862 5863 5865 5868 5871 5872 5874 5876 5877 5878 5880 5880 5881 5881 5882 5882 5882 5882 5882 5882 5882 5882 5881 5882 5881 5881 5881 5880 5879 5877 5876 5876 5875 5873
5798 5809 5815 5819 5824 5831 5835 5839 5843 5846 5849 5852 5856 5858 5860 5861 5862 5865 5867 5869 5871 5873 5875 5876 5877 5878 5878 5879 5879 5879 5880 5880 5881 5880 5880 5880 5880 5880 5880 5879 5879 5877 5875 5874 5874 5873 5872 5870 5868
5795 5805 5810 5814 5820 5827 5832 5835 5840 5844 5848 5850 5854 5856 5858 5860 5861 5864 5865 5867 5869 5871 5873 5874 5875 5876 5876 5877 5878 5878 5878 5878 5878 5879 5879 5878 5878 5877 5876 5876 5875 5875 5874 5872 5871 5869 5867 5866 5865
5791 5800 5805 5810 5818 5823 5828 5832 5836 5841 5846 5848 5851 5854 5856 5858 5860 5862 5864 5866 5868 5869 5871 5872 5874 5874 5875 5875 5876 5875 5875 5876 5876 5876 5875 5875 5874 5873 5873 5872 5872 5871 5869 5868 5867 5865 5864 5862 5860
5783 5792 5800 5805 5813 5819 5824 5829 5834 5837 5843 5846 5849 5852 5854 5856 5859 5861 5863 5864 5866 5868 5870 5871 5872 5872 5873 5873 5873 5873 5874 5873 5873 5873 5873 5873 5872 5871 5870 5869 5868 5867 5865 5864 5863 5861 5859 5856 5854
5777 5784 5793 5799 5806 5814 5820 5825 5831 5835 5840 5842 5847 5849 5851 5854 5856 5859 5861 5862 5864 5867 5868 5869 5870 5870 5871 5871 5871 5871 5871 5871 5871 5871 5870 5870 5869 5867 5866 5865 5864 5863 5862 5860 5858 5856 5854 5851 5848
5772 5780 5786 5793 5799 5807 5813 5821 5827 5831 5835 5839 5843 5847 5849 5851 5852 5855 5859 5860 5862 5864 5865 5867 5867 5868 5869 5869 5868 5868 5868 5868 5868 5868 5867 5866 5864 5863 5862 5860 5858 5857 5856 5854 5852 5849 5847 5844 5841
5765 5773 5780 5788 5793 5801 5806 5816 5821 5826 5830 5834 5839 5842 5845 5846 5850 5852 5854 5857 5860 5861 5863 5864 5864 5865 5866 5866 5865 5864 5864 5864 5864 5864 5863 5862 5861 5859 5857 5856 5854 5851 5849 5847 5845 5842 5840 5836 5834
5756 5765 5772 5782 5788 5794 5800 5810 5815 5821 5826 5830 5835 5838 5840 5842 5845 5848 5850 5853 5857 5858 5859 5860 5861 5861 5862 5862 5862 5860 5860 5860 5860 5859 5858 5857 5856 5854 5853 5850 5848 5845 5842 5840 5837 5834 5832 5828 5825
5751 5758 5765 5774 5783 5788 5794 5805 5810 5815 5820 5825 5829 5833 5837 5839 5840 5845 5847 5849 5852 5854 5854 5856 5857 5858 5858 5858 5858 5856 5855 5854 5854 5853 5852 5851 5849 5848 5845 5843 5841 5838 5834 5831 5829 5826 5822 5819 5816
5747 5752 5760 5768 5777 5783 5789 5798 5805 5809 5814 5820 5824 5830 5832 5834 5837 5840 5842 5844 5847 5849 5849 5851 5852 5853 5853 5853 5853 5852 5850 5848 5848 5846 5844 5843 5841 5839 5837 5835 5832 5829 5826 5822 5819 5816 5812 5808 5804
5740 5747 5752 5759 5767 5775 5782 5792 5797 5803 5809 5814 5818 5822 5824 5827 5832 5835 5838 5840 5841 5843 5843 5844 5845 5845 5846 5846 5845 5845 5844 5842 5840 5839 5837 5836 5833 5831 5828 5825 5823 5819 5816 5813 5809 5805 5801 5796 5791
5734 5741 5748 5755 5762 5766 5774 5783 5789 5796 5802 5806 5811 5815 5818 5822 5826 5830 5833 5834 5836 5836 5837 5838 5839 5839 5840 5839 5838 5838 5837 5835 5833 5831 5829 5827 5824 5822 5819 5816 5812 5809 5806 5802 5797 5792 5787 5782 5777
5728 5737 5743 5748 5752 5758 5766 5771 5779 5788 5795 5800 5804 5809 5813 5816 5820 5824 5826 5827 5830 5830 5831 5832 5832 5832 5832 5832 5832 5830 5828 5827 5825 5824 5821 5818 5815 5812 5810 5807 5803 5799 5794 5790 5787 5781 5774 5768 5762
5722 5728 5735 5741 5744 5750 5757 5762 5773 5778 5785 5791 5797 5802 5806 5810 5813 5816 5819 5821 5822 5823 5824 5825 5825 5825 5824 5824 5824 5822 5820 5819 5817 5814 5812 5809 5806 5803 5799 5795 5791 5787 5782 5777 5772 5766 5759 5753 5747
5715 5721 5728 5735 5739 5742 5750 5755 5762 5771 5779 5785 5790 5795 5798 5802 5805 5808 5811 5812 5813 5815 5816 5816 5817 5816 5816 5816 5814 5812 5811 5809 5807 5805 5803 5799 5796 5792 5788 5784 5780 5774 5769 5763 5757 5751 5744 5738 5731
5708 5716 5722 5728 5730 5736 5743 5745 5749 5760 5768 5777 5783 5788 5791 5793 5795 5798 5800 5802 5805 5805 5807 5808 5808 5808 5807 5807 5806 5803 5800 5799 5797 5795 5792 5789 5785 5781 5777 5772 5767 5761 5754 5748 5743 5737 5731 5724 5718
5702 5711 5717 5721 5726 5731 5737 5739 5742 5753 5762 5770 5775 5778 5781 5782 5785 5789 5791 5794 5795 5795 5796 5797 5797 5797 5797 5797 5795 5793 5789 5789 5786 5784 5780 5777 5773 5769 5764 5759 5753 5747 5742 5736 5730 5723 5716 5711 5704
5695 5703 5711 5718 5722 5728 5731 5735 5738 5748 5754 5759 5763 5767 5770 5772 5774 5779 5782 5783 5783 5784 5783 5785 5785 5786 5786 5786 5784 5782 5780 5777 5775 5772 5768 5764 5761 5757 5752 5746 5740 5735 5729 5722 5716 5710 5703 5696 5690
5690 5701 5706 5710 5716 5721 5725 5728 5732 5741 5747 5752 5755 5759 5761 5762 5764 5768 5771 5773 5772 5774 5775 5774 5775 5775 5775 5774 5772 5770 5767 5765 5762 5760 5756 5752 5749 5744 5738 5732 5726 5721 5715 5708 5702 5696 5689 5682 5675
5685 5689 5698 5705 5711 5716 5720 5725 5728 5732 5738 5742 5745 5749 5751 5754 5757 5759 5761 5763 5763 5763 5764 5766 5765 5764 5763 5763 5762 5760 5757 5754 5751 5747 5742 5740 5736 5730 5725 5720 5714 5709 5703 5697 5690 5683 5676 5668 5660
5679 5686 5694 5700 5708 5710 5715 5720 5721 5725 5729 5732 5736 5740 5743 5746 5748 5751 5752 5753 5754 5755 5756 5756 5755 5754 5751 5750 5749 5747 5744 5742 5739 5735 5732 5728 5723 5718 5713 5708 5703 5697 5690 5683 5675 5668 5661 5654 5647